AAL1545 KSAT-KDFW

Flight info

Callsign AAL1545
Flight time 0h 40m
Altitude 27000
Route YODUH2 YODUH GUTZZ SHMPP3
Aircraft B738/M-SDE2E3FGHIRWXY/LB1

Departure

Time 2026-05-07 20:11
Airport San Antonio International Airport (KSAT)

Arrival

Time 2026-05-07 20:51
Airport Dallas Fort Worth International Airport (KDFW)
Time Latitude Longitude Altitude Speed Heading
2026-05-07 19:35 29.52844 -98.47155 813 ft 0 kts 311°
2026-05-07 19:59 29.52832 -98.47139 793 ft 4 kts 319°
2026-05-07 19:59 29.52810 -98.47123 794 ft 4 kts 345°
2026-05-07 20:00 29.52786 -98.47123 793 ft 3 kts 35°
2026-05-07 20:00 29.52783 -98.47125 793 ft 1 kts 39°
2026-05-07 20:04 29.52794 -98.47115 793 ft 5 kts 39°
2026-05-07 20:04 29.52836 -98.47074 792 ft 11 kts 41°
2026-05-07 20:04 29.52847 -98.47004 792 ft 10 kts 129°
2026-05-07 20:04 29.52801 -98.46945 792 ft 10 kts 133°
2026-05-07 20:05 29.52755 -98.46889 791 ft 10 kts 131°
2026-05-07 20:05 29.52689 -98.46881 792 ft 11 kts 213°
2026-05-07 20:05 29.52626 -98.46950 792 ft 14 kts 221°
2026-05-07 20:05 29.52547 -98.47028 792 ft 15 kts 221°
2026-05-07 20:06 29.52469 -98.47104 792 ft 14 kts 222°
2026-05-07 20:06 29.52396 -98.47156 792 ft 6 kts 178°
2026-05-07 20:06 29.52374 -98.47126 792 ft 0 kts 82°
2026-05-07 20:08 29.52375 -98.47125 792 ft 1 kts 77°
2026-05-07 20:08 29.52383 -98.47105 792 ft 5 kts 65°
2026-05-07 20:09 29.52390 -98.47057 792 ft 7 kts 107°
2026-05-07 20:09 29.52359 -98.47016 792 ft 7 kts 124°
2026-05-07 20:09 29.52357 -98.46965 792 ft 7 kts 64°
2026-05-07 20:10 29.52374 -98.46942 792 ft 0 kts 42°
2026-05-07 20:10 29.52376 -98.46940 794 ft 1 kts 42°
2026-05-07 20:10 29.52550 -98.46767 793 ft 69 kts 40°
2026-05-07 20:10 29.53087 -98.46239 793 ft 132 kts 40°
2026-05-07 20:11 29.53843 -98.45498 1182 ft 149 kts 40°
2026-05-07 20:11 29.54673 -98.44685 1879 ft 157 kts 38°
2026-05-07 20:11 29.55563 -98.43903 2529 ft 171 kts 28°
2026-05-07 20:11 29.56842 -98.43699 2762 ft 201 kts
2026-05-07 20:12 29.58327 -98.43660 2933 ft 227 kts
2026-05-07 20:12 29.59950 -98.43581 3359 ft 240 kts
2026-05-07 20:12 29.61664 -98.43492 3773 ft 258 kts
2026-05-07 20:12 29.63506 -98.43392 4341 ft 271 kts
2026-05-07 20:13 29.65391 -98.43285 5080 ft 277 kts
2026-05-07 20:13 29.67323 -98.43172 5887 ft 280 kts
2026-05-07 20:13 29.69276 -98.43053 6659 ft 282 kts
2026-05-07 20:13 29.71255 -98.42932 7310 ft 289 kts
2026-05-07 20:14 29.73284 -98.42808 7981 ft 293 kts
2026-05-07 20:14 29.75328 -98.42678 8714 ft 296 kts
2026-05-07 20:14 29.77404 -98.42546 9411 ft 302 kts
2026-05-07 20:14 29.79506 -98.42420 9977 ft 303 kts
2026-05-07 20:15 29.81631 -98.42288 9985 ft 308 kts
2026-05-07 20:15 29.83777 -98.42152 10106 ft 314 kts
2026-05-07 20:15 29.86041 -98.42007 10265 ft 337 kts
2026-05-07 20:15 29.88453 -98.41754 10453 ft 358 kts
2026-05-07 20:16 29.90971 -98.41425 10864 ft 368 kts
2026-05-07 20:16 29.93535 -98.41077 11471 ft 372 kts
2026-05-07 20:16 29.96115 -98.40732 12128 ft 375 kts
2026-05-07 20:16 29.98721 -98.40391 12744 ft 379 kts
2026-05-07 20:17 30.01357 -98.40054 13383 ft 383 kts
2026-05-07 20:17 30.04019 -98.39717 14038 ft 387 kts
2026-05-07 20:17 30.06709 -98.39377 14638 ft 390 kts
2026-05-07 20:17 30.09415 -98.38992 15300 ft 394 kts
2026-05-07 20:18 30.12137 -98.38505 15943 ft 398 kts
2026-05-07 20:18 30.14872 -98.37975 16682 ft 398 kts
2026-05-07 20:18 30.17604 -98.37434 17404 ft 399 kts
2026-05-07 20:18 30.20351 -98.36895 18052 ft 402 kts
2026-05-07 20:19 30.23117 -98.36360 18624 ft 405 kts
2026-05-07 20:19 30.25912 -98.35827 19097 ft 410 kts
2026-05-07 20:19 30.28746 -98.35291 19530 ft 416 kts
2026-05-07 20:19 30.31622 -98.34749 19969 ft 421 kts
2026-05-07 20:20 30.34526 -98.34203 20436 ft 425 kts
2026-05-07 20:20 30.37463 -98.33651 20863 ft 431 kts
2026-05-07 20:20 30.40441 -98.33092 21277 ft 436 kts
2026-05-07 20:20 30.43453 -98.32524 21725 ft 440 kts
2026-05-07 20:21 30.46489 -98.31951 22164 ft 445 kts
2026-05-07 20:21 30.49558 -98.31372 22572 ft 449 kts
2026-05-07 20:21 30.52656 -98.30787 22980 ft 453 kts
2026-05-07 20:21 30.55784 -98.30196 23375 ft 458 kts
2026-05-07 20:22 30.58940 -98.29599 23758 ft 462 kts
2026-05-07 20:22 30.62123 -98.28997 24074 ft 465 kts
2026-05-07 20:22 30.65319 -98.28390 24462 ft 466 kts
2026-05-07 20:22 30.68534 -98.27780 24840 ft 468 kts
2026-05-07 20:23 30.71712 -98.27177 25245 ft 470 kts
2026-05-07 20:23 30.74943 -98.26564 25617 ft 472 kts
2026-05-07 20:23 30.78191 -98.25947 25947 ft 475 kts
2026-05-07 20:23 30.81459 -98.25328 26290 ft 477 kts
2026-05-07 20:24 30.84736 -98.24705 26684 ft 478 kts
2026-05-07 20:24 30.88021 -98.24079 27039 ft 480 kts
2026-05-07 20:24 30.91378 -98.23442 27101 ft 486 kts
2026-05-07 20:24 30.94690 -98.22814 27118 ft 490 kts
2026-05-07 20:25 30.98056 -98.22172 27120 ft 490 kts
2026-05-07 20:25 31.01402 -98.21530 27127 ft 485 kts
2026-05-07 20:25 31.04731 -98.20890 27128 ft 485 kts
2026-05-07 20:25 31.08065 -98.20253 27118 ft 486 kts
2026-05-07 20:26 31.11409 -98.19614 27127 ft 486 kts
2026-05-07 20:26 31.14750 -98.18976 27118 ft 487 kts
2026-05-07 20:26 31.18091 -98.18337 27114 ft 487 kts
2026-05-07 20:26 31.21433 -98.17697 27116 ft 486 kts
2026-05-07 20:27 31.24767 -98.17057 27114 ft 486 kts
2026-05-07 20:27 31.27026 -98.16624 27147 ft 486 kts
2026-05-07 20:27 31.30359 -98.15984 27115 ft 485 kts
2026-05-07 20:27 31.33683 -98.15345 27106 ft 483 kts
2026-05-07 20:28 31.36996 -98.14708 27098 ft 482 kts
2026-05-07 20:28 31.40300 -98.14073 27094 ft 481 kts
2026-05-07 20:28 31.43597 -98.13471 27102 ft 478 kts
2026-05-07 20:28 31.46890 -98.12969 27095 ft 477 kts 360°
2026-05-07 20:29 31.50188 -98.12508 27086 ft 477 kts 359°
2026-05-07 20:29 31.53479 -98.12047 27095 ft 477 kts 360°
2026-05-07 20:29 31.56771 -98.11570 27100 ft 477 kts 360°
2026-05-07 20:29 31.60058 -98.11079 27092 ft 476 kts
2026-05-07 20:30 31.63319 -98.10579 27069 ft 468 kts
2026-05-07 20:30 31.66414 -98.09590 27107 ft 473 kts 19°
2026-05-07 20:30 31.69266 -98.07716 27139 ft 464 kts 25°
2026-05-07 20:30 31.71988 -98.05770 26973 ft 454 kts 26°
2026-05-07 20:31 31.74672 -98.03856 26476 ft 451 kts 25°
2026-05-07 20:31 31.77394 -98.01953 25670 ft 458 kts 24°
2026-05-07 20:31 31.80146 -98.00056 25097 ft 458 kts 24°
2026-05-07 20:31 31.82884 -97.98177 24710 ft 453 kts 24°
2026-05-07 20:32 31.85592 -97.96318 24313 ft 448 kts 23°
2026-05-07 20:32 31.88273 -97.94493 23954 ft 442 kts 22°
2026-05-07 20:32 31.90931 -97.92727 23580 ft 436 kts 22°
2026-05-07 20:32 31.93567 -97.90998 23075 ft 432 kts 22°
2026-05-07 20:33 31.96180 -97.89288 22565 ft 427 kts 22°
2026-05-07 20:33 31.98756 -97.87596 21905 ft 422 kts 22°
2026-05-07 20:33 32.01312 -97.85913 21169 ft 419 kts 22°
2026-05-07 20:33 32.03846 -97.84241 20477 ft 416 kts 23°
2026-05-07 20:34 32.06345 -97.82587 19967 ft 408 kts 23°
2026-05-07 20:34 32.08794 -97.80963 19503 ft 400 kts 23°
2026-05-07 20:34 32.11193 -97.79373 19079 ft 392 kts 23°
2026-05-07 20:34 32.13548 -97.77812 18620 ft 385 kts 24°
2026-05-07 20:35 32.15849 -97.76284 18514 ft 372 kts 24°
2026-05-07 20:35 32.18107 -97.74783 18517 ft 379 kts 24°
2026-05-07 20:35 32.20469 -97.73229 18528 ft 398 kts 24°
2026-05-07 20:35 32.22913 -97.71631 18515 ft 404 kts 24°
2026-05-07 20:36 32.25375 -97.70023 18496 ft 404 kts 24°
2026-05-07 20:36 32.27831 -97.68419 18481 ft 403 kts 24°
2026-05-07 20:36 32.30281 -97.66816 18478 ft 402 kts 24°
2026-05-07 20:36 32.32728 -97.65214 18479 ft 402 kts 24°
2026-05-07 20:37 32.35172 -97.63612 18478 ft 401 kts 24°
2026-05-07 20:37 32.37597 -97.62021 18328 ft 395 kts 24°
2026-05-07 20:37 32.39980 -97.60452 17782 ft 389 kts 24°
2026-05-07 20:37 32.42343 -97.58893 17035 ft 387 kts 24°
2026-05-07 20:38 32.44644 -97.57367 16801 ft 370 kts 24°
2026-05-07 20:38 32.46700 -97.55629 16608 ft 363 kts 45°
2026-05-07 20:38 32.48106 -97.53219 16568 ft 347 kts 54°
2026-05-07 20:38 32.49463 -97.50947 16484 ft 328 kts 46°
2026-05-07 20:39 32.50816 -97.48837 16209 ft 323 kts 62°
2026-05-07 20:39 32.51320 -97.46279 15844 ft 319 kts 92°
2026-05-07 20:39 32.51311 -97.43660 15380 ft 320 kts 87°
2026-05-07 20:39 32.51507 -97.40993 14579 ft 333 kts 84°
2026-05-07 20:40 32.51859 -97.38208 13699 ft 348 kts 77°
2026-05-07 20:40 32.52460 -97.35432 13138 ft 346 kts 73°
2026-05-07 20:40 32.53114 -97.32738 12912 ft 334 kts 72°
2026-05-07 20:40 32.53749 -97.30127 12555 ft 327 kts 73°
2026-05-07 20:41 32.54366 -97.27542 12093 ft 325 kts 73°
2026-05-07 20:41 32.54966 -97.24968 11639 ft 323 kts 74°
2026-05-07 20:41 32.55552 -97.22409 11214 ft 320 kts 74°
2026-05-07 20:41 32.56126 -97.19878 10801 ft 317 kts 74°
2026-05-07 20:42 32.56694 -97.17367 10393 ft 314 kts 75°
2026-05-07 20:42 32.57254 -97.14882 9949 ft 311 kts 75°
2026-05-07 20:42 32.57810 -97.12408 9494 ft 309 kts 74°
2026-05-07 20:42 32.58359 -97.09968 9087 ft 304 kts 73°
2026-05-07 20:43 32.59261 -97.07746 8631 ft 297 kts 46°
2026-05-07 20:43 32.60837 -97.06280 8222 ft 284 kts 21°
2026-05-07 20:43 32.62685 -97.05669 7799 ft 271 kts 356°
2026-05-07 20:43 32.64456 -97.06113 7453 ft 255 kts 328°
2026-05-07 20:44 32.65731 -97.07453 7150 ft 242 kts 300°
2026-05-07 20:44 32.66218 -97.09275 6816 ft 236 kts 271°
2026-05-07 20:44 32.65832 -97.11155 6358 ft 241 kts 242°
2026-05-07 20:44 32.64641 -97.12599 5734 ft 255 kts 212°
2026-05-07 20:45 32.62914 -97.13193 5190 ft 264 kts 183°
2026-05-07 20:45 32.61113 -97.13128 5223 ft 260 kts 169°
2026-05-07 20:45 32.59430 -97.12240 5244 ft 274 kts 140°
2026-05-07 20:45 32.58321 -97.10430 5237 ft 274 kts 104°
2026-05-07 20:46 32.58301 -97.08246 5228 ft 264 kts 68°
2026-05-07 20:46 32.59340 -97.06555 5222 ft 253 kts 31°
2026-05-07 20:46 32.60972 -97.05925 5243 ft 247 kts
2026-05-07 20:46 32.62700 -97.05763 5241 ft 251 kts
2026-05-07 20:47 32.64471 -97.05676 4905 ft 256 kts
2026-05-07 20:47 32.66255 -97.05626 4576 ft 257 kts
2026-05-07 20:47 32.68044 -97.05596 4267 ft 257 kts
2026-05-07 20:47 32.69826 -97.05580 3947 ft 253 kts
2026-05-07 20:48 32.71564 -97.05574 3631 ft 247 kts
2026-05-07 20:48 32.73261 -97.05565 3322 ft 241 kts
2026-05-07 20:48 32.74911 -97.05548 3125 ft 232 kts
2026-05-07 20:48 32.76518 -97.05487 2830 ft 231 kts 357°
2026-05-07 20:49 32.78095 -97.05541 2511 ft 221 kts
2026-05-07 20:49 32.79424 -97.05493 2244 ft 211 kts
2026-05-07 20:49 32.80811 -97.05518 1992 ft 198 kts
2026-05-07 20:49 32.82150 -97.05515 1744 ft 187 kts
2026-05-07 20:50 32.83418 -97.05507 1486 ft 176 kts
2026-05-07 20:50 32.84598 -97.05501 1291 ft 164 kts
2026-05-07 20:50 32.85698 -97.05495 1082 ft 155 kts
2026-05-07 20:50 32.86761 -97.05486 844 ft 149 kts
2026-05-07 20:51 32.87780 -97.05483 668 ft 144 kts 360°
2026-05-07 20:51 32.88727 -97.05478 592 ft 124 kts 358°
2026-05-07 20:51 32.89436 -97.05474 603 ft 80 kts
2026-05-07 20:51 32.89831 -97.05460 606 ft 37 kts 16°
2026-05-07 20:52 32.90003 -97.05355 603 ft 7 kts 30°
2026-05-07 20:52 32.90004 -97.05354 603 ft 0 kts 30°
2026-05-07 20:52 32.90005 -97.05354 603 ft 1 kts 30°
2026-05-07 20:52 32.90024 -97.05340 603 ft 7 kts 30°
2026-05-07 20:53 32.90073 -97.05307 602 ft 9 kts 30°
2026-05-07 20:53 32.90113 -97.05252 600 ft 10 kts 81°
2026-05-07 20:53 32.90116 -97.05168 598 ft 11 kts 91°
2026-05-07 20:53 32.90116 -97.05082 598 ft 10 kts 90°
2026-05-07 20:54 32.90115 -97.04998 597 ft 10 kts 90°
2026-05-07 20:54 32.90116 -97.04917 598 ft 10 kts 90°
2026-05-07 20:54 32.90116 -97.04837 598 ft 9 kts 89°
2026-05-07 20:54 32.90117 -97.04758 596 ft 10 kts 89°
2026-05-07 20:55 32.90090 -97.04698 596 ft 9 kts 169°
2026-05-07 20:55 32.90025 -97.04698 597 ft 9 kts 181°
2026-05-07 20:55 32.89962 -97.04700 597 ft 9 kts 181°
2026-05-07 20:55 32.89891 -97.04702 596 ft 13 kts 181°
2026-05-07 20:56 32.89788 -97.04705 596 ft 16 kts 181°
2026-05-07 20:56 32.89682 -97.04708 596 ft 15 kts 181°
2026-05-07 20:56 32.89637 -97.04657 597 ft 7 kts 108°
2026-05-07 20:56 32.89623 -97.04604 597 ft 7 kts 94°
2026-05-07 20:57 32.89625 -97.04577 597 ft 2 kts 82°
2026-05-07 20:57 32.89626 -97.04567 597 ft 0 kts 81°